usa flag      new mexico flag

Language: 

LomaPinon History Data from Weather Underground


LomaPinon Weather Station Historical Data
 
Daily Summary for October 15, 2018 Units:  English    Metric   Both
« Previous Day
Next Day »
Daily Weekly Monthly Yearly Custom
  Current: High: Low: Average:
Temperature: 35 °F TemperatureF °F 35 °F 35.6 °F
Dew Point: 30.4 °F DewpointF °F 30.3 °F 31.2 °F
Humidity: 83 % Humidity % 81 % 82 %
Wind Speed: 6 mph WindSpeedMPH mph 3 mph 6.5 mph
Wind Gust: 14 mph WindSpeedGustMPH mph - -
Wind:North - - South
Pressure: 30.36 in PressureIn in 30.29 in -
Precipitation: 0 in      
Historical Graphs
 
 
Tabular Data for October 15, 2018
Time Temperature Dew Point Pressure Wind Wind Speed Wind Gust Humidity Rainfall Rate (Hourly) solar
TemperatureF °F DewpointF °F PressureIn in Calm     Humidity % HourlyPrecipIn in SolarRadiationWatts/m^2 W/m2
00:04 37.4 °F 33.9 °F 30.29 in NNW 13 mph 13 mph 87 % 0 in 0.00 W/m2
00:09 37.3 °F 33.8 °F 30.30 in North 6 mph 15 mph 87 % 0 in 0.00 W/m2
00:14 37.3 °F 33.8 °F 30.30 in NNE 10 mph 15 mph 87 % 0 in 0.00 W/m2
00:19 37.3 °F 33.8 °F 30.30 in NNE 6 mph 12 mph 87 % 0 in 0.00 W/m2
00:24 37.2 °F 33.4 °F 30.30 in NNW 4 mph 12 mph 86 % 0 in 0.00 W/m2
00:29 37.1 °F 33.3 °F 30.30 in NNW 6 mph 11 mph 86 % 0 in 0.00 W/m2
00:34 37.1 °F 33.3 °F 30.30 in NNE 8 mph 11 mph 86 % 0 in 0.00 W/m2
00:39 37 °F 33.2 °F 30.30 in NNE 3 mph 13 mph 86 % 0 in 0.00 W/m2
00:44 36.9 °F 33.1 °F 30.30 in North 5 mph 13 mph 86 % 0 in 0.00 W/m2
00:49 36.9 °F 33.1 °F 30.31 in North 5 mph 13 mph 86 % 0 in 0.00 W/m2
00:54 36.9 °F 33.1 °F 30.31 in North 5 mph 10 mph 86 % 0 in 0.00 W/m2
00:59 36.8 °F 32.7 °F 30.31 in NNW 4 mph 11 mph 85 % 0 in 0.00 W/m2
01:04 36.8 °F 32.7 °F 30.31 in NNW 8 mph 11 mph 85 % 0 in 0.00 W/m2
01:09 36.8 °F 32.7 °F 30.31 in North 9 mph 11 mph 85 % 0 in 0.00 W/m2
01:14 36.7 °F 32.6 °F 30.31 in North 6 mph 12 mph 85 % 0 in 0.00 W/m2
01:19 36.6 °F 32.5 °F 30.31 in North 5 mph 12 mph 85 % 0 in 0.00 W/m2
01:24 36.6 °F 32.2 °F 30.31 in North 6 mph 12 mph 84 % 0 in 0.00 W/m2
01:29 36.6 °F 32.2 °F 30.31 in North 5 mph 11 mph 84 % 0 in 0.00 W/m2
01:34 36.6 °F 32.2 °F 30.31 in North 6 mph 11 mph 84 % 0 in 0.00 W/m2
01:39 36.5 °F 32.1 °F 30.32 in NNW 7 mph 11 mph 84 % 0 in 0.00 W/m2
01:44 36.5 °F 32.1 °F 30.32 in North 4 mph 11 mph 84 % 0 in 0.00 W/m2
01:49 36.5 °F 32.1 °F 30.32 in NNE 3 mph 13 mph 84 % 0 in 0.00 W/m2
01:54 36.5 °F 31.8 °F 30.32 in NNE 6 mph 14 mph 83 % 0 in 0.00 W/m2
01:59 36.4 °F 31.7 °F 30.32 in North 5 mph 14 mph 83 % 0 in 0.00 W/m2
02:04 36.4 °F 31.4 °F 30.33 in NE 4 mph 13 mph 82 % 0 in 0.00 W/m2
02:09 36.4 °F 31.1 °F 30.33 in NNE 5 mph 13 mph 81 % 0 in 0.00 W/m2
02:14 36.4 °F 31.4 °F 30.33 in NNE 10 mph 13 mph 82 % 0 in 0.00 W/m2
02:19 36.3 °F 31.3 °F 30.34 in NNE 7 mph 14 mph 82 % 0 in 0.00 W/m2
02:24 36.2 °F 30.9 °F 30.34 in North 6 mph 14 mph 81 % 0 in 0.00 W/m2
02:29 36.2 °F 30.9 °F 30.35 in North 9 mph 14 mph 81 % 0 in 0.00 W/m2
02:34 36.1 °F 30.8 °F 30.35 in NNE 9 mph 14 mph 81 % 0 in 0.00 W/m2
02:39 36.1 °F 30.8 °F 30.35 in NNW 12 mph 12 mph 81 % 0 in 0.00 W/m2
02:44 36 °F 31 °F 30.36 in North 7 mph 12 mph 82 % 0 in 0.00 W/m2
02:49 36 °F 31 °F 30.36 in North 6 mph 12 mph 82 % 0 in 0.00 W/m2
02:54 35.9 °F 30.9 °F 30.36 in NNE 9 mph 15 mph 82 % 0 in 0.00 W/m2
02:59 35.8 °F 30.8 °F 30.36 in North 9 mph 15 mph 82 % 0 in 0.00 W/m2
03:04 35.7 °F 30.7 °F 30.36 in North 7 mph 14 mph 82 % 0 in 0.00 W/m2
03:09 35.5 °F 30.5 °F 30.36 in NNE 11 mph 14 mph 82 % 0 in 0.00 W/m2
03:14 35.4 °F 30.5 °F 30.37 in North 8 mph 13 mph 82 % 0 in 0.00 W/m2
03:19 35.2 °F 30.3 °F 30.36 in NNE 5 mph 14 mph 82 % 0 in 0.00 W/m2
03:24 35 °F 30.4 °F 30.36 in North 6 mph 14 mph 83 % 0 in 0.00 W/m2
Rio Rancho, New Mexico Weather
Compliments of Weather Underground - 2 mb
top